{"data":{"norad_id":63349,"intl_designator":"2025-059F","name":"YUNYAO-1 48","alt_names":[],"object_type":"PAYLOAD","status":"ACTIVE","operator":null,"country":"PRC","launch_date":"2025-03-21","launch_site_code":"JSC","launch_vehicle":null,"mission":null,"orbit_class":"UNKNOWN","rcs_meters":null,"size_class":null,"mass_kg":null,"dimensions":null,"purposes":[],"wikipedia_slug":null,"has_3d_model":false,"image_url":null,"decayed_at":null,"tle_current":{"epoch":"2026-09-22T23:37:05.909952Z","epoch_age_seconds":91611,"freshness":"FRESH","line1":"1 63349U 25059F   26265.98409618  .00002668  00000+0  16002-3 0  9995","line2":"2 63349  97.6131  87.0778 0015091 178.9282 181.1983 15.11742847 83073","mean_motion":15.11742847,"eccentricity":0.0015091,"inclination_deg":97.6131,"raan_deg":87.0778,"arg_perigee_deg":178.9282,"mean_anomaly_deg":181.1983,"bstar":0.00016002,"rev_number":8307,"period_min":95.254295587218,"perigee_km":520.45834331612,"apogee_km":541.31115275604,"semimajor_km":6909.0217480361,"source":"CELESTRAK","updated_at":"2026-09-23T09:00:22.029738Z"}}}